Погода в Виннице

Погода в Виннице : погода сейчас, прогноз погоды и архив. Всё, что Вы хотите узнать о погоде в Виннице!

Хотите узнать прогноз погоды в Виннице? Тогда Вам сюда: Погода в Виннице

Поиск расширенной информации на нашем сайте:

Другие новости

Новости СМИ2

Главная страница сайта

Новости сайта

03.07.2017

Напоминаем, что на нашем специализированном сайте Метеоцентр.Азия вы можете получить высокодетализированные автоматические прогнозы погоды по пунктам России, СНГ и мира в авиационном формате (включающие направление и скорость ветра, видимость, явления погоды, количество и форму облачности, нижнюю и верхнюю границу облачности).


Погода в Виннице - сегодня

Время (UTC), дата Ветер
(°,м/с) 
Видим.   Явления Облачность Т
(°С)
Тd
(°С)
f(%) Тe
(°С)
Pmin
(гПа)
dP
(гПа)
Po
(мм)
O2
(г/м3)
Тmin Tmax R s Состояние
почвы
18 17.02.18 300 (СЗ) 13000 м    3/0 средняя 
[Ac trans]
-1.2 -5.2 74 -2  1024.4  0.2  740  300           
21 17.02.18 230 (ЮЗ) 13000 м    ясно 
-3.8 -5.3 89 -6  1024  -0.7  740  303           
00 18.02.18 220 (ЮЗ) 13000 м    6/0 средняя 
[Ac trans]
-4.6 -5.5 93 -6  1024.2  740  304           
03 18.02.18 240 (ЮЗ) 13000 м    8/0 верхняя 
[Ci fib]
-4.8 -5.8 93 -6  1023.4  -0.8  739  304           
06 18.02.18 210 (ЮЗ) 13000 м    9/0 средняя, верхняя 
[Ac trans|Ci]
-4.8 -6.1 91 -6  1023.6  0.2  739  304  -5.1      13  равномерный
мокрый или
старый снег
100% 
09 18.02.18 230 (ЮЗ) 13000 м    9/3 1000 м верхняя 
[Sc|Ci]
-2.2 -5.8 76 -3  1023.2  739  301           
12 18.02.18 240 (ЮЗ) 13000 м    9/3 1000 м средняя 
[Sc|Ac trans]
+1.2 -5.5 61 +1  1022.3  -0.4  739  297           
15 18.02.18 270 (З) 13000 м    10/4 600 м средняя 
[Sc|Ac und]
+1.3 -5 63 +1  1022.4  0.1  739  297           
18 18.02.18 280 (З) 13000 м    10/3 600 м средняя 
[Sc|Ac und]
+0.1 -3.3 78 -2  1023.2  0.6  740  298           
21 18.02.18 330 (СЗ) 7000 м  слаб. ливневой снег  10/10 360 м кучево-дожд. 
[Cb cap]
-1 -2.3 91 -4  1024.1  0.7  740  300           
00 19.02.18 320 (СЗ) 13000 м  {ливн. осадки}  9/6 540 м средняя 
[Sc|Ac trans]
-3.5 -7.9 72 -7  1025.4  0.9  741  303           
03 19.02.18 320 (СЗ) 10 км  слаб. ливневой снег  10/8 480 м кучево-дожд., средняя 
[Cb cap|Ac und]
-4.4 -7.1 81 -8  1025.6  0.1  741  304           
06 19.02.18 300 (СЗ) 13000 м  {ливн. осадки}  6/4 600 м средняя 
[Sc|Ac trans]
-6.1 -8 86 -9  1026.9  742  306  -6.2    0.5     
09 19.02.18 340 (С) 13000 м  {ливн. осадки}  8/6 750 м кучево-дожд., средняя 
[Cb cap|Ac trans]
-3.8 -7.1 78 -7  1026.9  0.4  742  304           
12 19.02.18 320 (СЗ) 13000 м  {ливн. осадки}  4/0 средняя 
[Ac trans]
-1.8 -7.9 63 -5  1026.5  -0.2  742  302      0.0     
15 19.02.18 310 (СЗ) 13000 м    3/0 средняя 
[Ac trans]
-2.6 -7.8 67 -4  1026.3  -0.3  741  302           
18 19.02.18 280 (З) 13000 м    3/0 верхняя 
[Ci fib]
-6.6 -10.7 73 -8  1027.2  0.3  742  307      0.0     
21 19.02.18 тихо ()   7000 м  дымка  ясно 
-7.3 -9 88 -7  1027.3  742  308           
00 20.02.18 тихо ()   3000 м  дымка  ясно 
-8.4 -9 95 -8  1027.4  742  309        598   
03 20.02.18 140 (ЮВ) 7000 м  дымка  9/0 средняя, верхняя 
[Ac trans|Ci]
+1 +0.2 94 -1  1005.5  -1.9  727  292           
06 20.02.18 180 (Ю) 13000 м    10/4 600 м средняя 
[Sc|Ac und]
+0.8 -0.3 92 -2  1010  -0.3  730  293  +0         
09 20.02.18 тихо ()   6000 м  дымка  4/0 верхняя 
[Ci fib]
-4.4 -6 89 -4  1026.5  741  304           
12 20.02.18 100 (В) 13000 м    3/0 верхняя 
[Ci fib]
-1.6 -7.6 64 -3  1025.4  -0.7  741  301           
15 20.02.18 070 (В) 13000 м    4/0 верхняя 
[Ci fib]
-3.2 -8.7 66 -4  1024.7  -0.9  740  303           
18 20.02.18 080 (В) 13000 м    3/0 верхняя 
[Ci fib]
-6 -8.7 81 -7  1025.1  740  306    -0.8       
Время (UTC), дата Ветер
(°,м/с) 
Видим.   Явления Облачность Т
(°С)
Тd
(°С)
f(%) Тe
(°С)
Pmin
(гПа)
dP
(гПа)
Po
(мм)
O2
(г/м3)
Тmin Tmax R s Состояние
почвы

Для получения пояснительной информации подведите курсор к названию столбца.

ПОГОДА в Виннице - архив

Всё, что Вы хотите узнать о погоде в Виннице - удобно и подробно!

Выберите нужную дату (начиная с 1 января 2015* года) и нажмите кнопку "Найти".
Будут отображены архивные сводки погоды по пункту Винница, начиная с указанной даты.


Отображать данные в формате CSV (для использования в таблицах Excel)


Внимание! Наш архив погоды предназначен исключительно для личного некоммерческого использования в познавательных целях. Если Вам необходимы официальные справки о состоянии погоды (для производственных, юридических, коммерческих и т.п. целей), обращайтесь в органы Росгидромета.

*Примечание: данная дата относится к архиву по метеостанциям СССР (Россия, СНГ, Балтия).
Архив по метеостанциям Зарубежной Европы и Азии (кроме Китая) хранится 10 дней, по другим регионам земного шара (Китай, Африка, Америка, Австралия, Океания) - 1 день.

Винница - район местоположения метеостанции


Название, широта, долгота, высота метеостанции:
Винница 49.2°ш. 28.6°д. 298 м над ур. моря [Украина]

Дополнительная информация

В oтличие oт бoльшинства пoгoдных сайтoв мы публикуем пoдрoбную метеoинфoрмацию в детальнoм прoфессиoнальнoм фoрмате.

Характеристики температуры и влажнoсти вoздуха измеряются на высoте 2 м в тени вдали oт зданий и деревьев.
Скoрoсть ветра измеряется на высoте 10 м (на урoвне рoста челoвека скoрoсть ветра ниже в 1.5-2 раза). Если метеoстанция нахoдится в гoрoде или в лесу, тo скoрoсть ветра занижена на 2-4 м/с пo сравнению с oткрытым местoм. Скoрoсть ветра над акватoриями крупных рек и oзёр, а также на вершинах хoлмoв на 2-5 м/с выше, чем в oбычных услoвиях.
Атмoсфернoе давление в разных тoчках местнoсти мoжет значительнo oтличаться oт давления на метеoстанции, в зависимoсти oт услoвий рельефа (при пoдъёме на 10 м давление пoнижается примернo на 1 мм рт.ст.).